OBJECT D, 59776

Orbit data source: Space-Track

You're viewing an Uncataloged Satellite

Recently launched and/or uncataloged satellites may have evolving metadata. Metadata may include but not limited to: Owner, Maufacturer, Bus, Motor, and Mission.

OBJECT D, 59776 is a satellite owned by Sitronics (CIS) in SSO that was launched on Thu, 16 May 2024 UTC via a SOYUZ-2-1B launch vehicle from the Plesetsk Missile And Space Complex (PKMTR). Unknown objects in Earth's orbit typically refer to objects detected orbiting the Earth but have not yet been identified or cataloged. These objects could be anything from previously untracked satellites, spent rocket stages, debris from satellite collisions, or even natural meteoroids temporarily captured by Earth's gravity.

Loading next visibility...
Identifier
59776, 2024-092D
Orbit
SSO
Last TLE update
10 hours ago
Origin
Manufacturer
Sputniks
Mission
Operational spacecraft
Bus & Motor
CUBESAT 3U?, Unknown motor
Mass
3 kg wet, 3 kg dry
Launch date (UTC)
2024-05-16 (1 year ago)
Launch vehicle
SOYUZ-2-1B
Launch site
Plesetsk Missile And Space Complex (PKMTR)
Object type
Unknown
Shape & HBR
Unknown
Radar Cross Section
Small (<0.1 m²)

Expand to show TLE details & history

TLE from 10 hours ago
0 OBJECT D
1 59776U 24092D   25170.61104248  .00009220  00000-0  39866-3 0  9990
2 59776  97.6224 288.9496 0009132 355.1896   4.9251 15.22654595 60331
Epoch: 2025-06-19T14:39Z
TLE epoch observation values (Epoch: 2025-06-19T14:39:54.07Z)
Latitude
0.00002°
Longitude
160.89806°
Altitude
494.668 km
Speed
7.621 km/s
True Right ascension
19h 15m 47s
True Declination
0° 00' 00"
Sunlit
Object was in full shadow at epoch
Visualization orbit readout
Latitude
-6.262°
Longitude
-19.50434°
Altitude
508.059 km
Speed
7.606 km/s
Apparent Right ascension
04h 26m 24s
Apparent Declination
-35° 09' 05"
Sunlit
Object is in daylight
Visualization observer readout
Local Sidereal Time
11:50:07
Azimuth
251.591° W
Elevation
-36.401°
Doppler factor
1
Orbital elements
Apogee altitude
501.085 km
Perigee altitude
488.533 km
Semi-major axis
6,872.946 km
Eccentricity
0.00091
Inclination
97.6224°
RAAN
288.9496°
Arg. of periapsis
355.1896°
True anomaly
Unknown
Mean anomaly
4.9251°
Eccentric anomaly
Unknown
Mean motion
3.80916 °/min
Orbital period
94.51 mins
BSTAR
0.00039866
Loading maneuver chart data...
Loading SW <> Apogee altitude chart data...
Loading historical data...
Loading historical data...
Loading historical data...
Loading historical data...
Loading historical data...
Loading historical data...
Loading historical data...

OBJECT D Visibility forecast

Observer location: undefined°, undefined°

Span
Click to sort rows by Start time (UTC) header in descending order
Start Az.
Max El. time (UTC)
Max El. Az.
Max El.
End time (UTC)
End Az.
6 mins2025-06-20 08:08:36.062Z182.119° SSW2025-06-20 08:11:36.062Z286.813° WNW39.617°2025-06-20 08:14:36.062Z339.21° N
5 mins2025-06-20 21:12:36.062Z340.586° N2025-06-20 21:14:36.062Z270.197° WNW32.646°2025-06-20 21:17:36.062Z216.477° SW
|